Location: Belfast
(54.5830°N, 5.9330°W)
Time: 21:46:27
(UTC+00:00)

ISS - Pass Details

Date: 12 November 2018
Orbit: 402 x 409 km, 51.6° (Epoch: 13 November)

Event Time Altitude Azimuth Distance (km) Brightness Sun altitude
Exits shadow 04:51:45 14° 144° (SE) 1,248 -1.0 -25.3°
Drops below altitude 10° 04:52:21 10° 139° (SE) 1,461 -0.6 -25.2°
Sets 04:54:34 0° 128° (SE) 2,320 0.7 -24.9°
